User: anonymous   Login
Location: Caltech
(34.1382°N, 118.1253°W)
Time: 03:29:51
(UTC-07:00)
Language:

Cosmos 1833 - Orbit

View from above orbital plane
View from above orbital plane
View from above satellite
View from above satellite

Ground track
Ground track

The orbit data is extracted from the following two-line orbital elements,

1 17589U 87027A   15245.11582071 -.00000149  00000-0 -54270-4 0  9994
2 17589  70.9205 119.2213 0018442 231.7385 237.7476 14.12876128467926
Epoch (UTC): 02 September 2015 02:46:46
Eccentricity: 0.0018442
inclination: 70.9205°
perigee height: 836 km
apogee height: 863 km
right ascension of ascending node: 119.2213°
argument of perigee: 231.7385°
revolutions per day: 14.12876128
mean anomaly at epoch: 237.7476°
orbit number at epoch: 46792

The dashed part of the orbit path shows where the satellite is in the earth's shadow,  

DLR